Change the Weather History Date:

Friday, September 7, 2012

  Actual Average Record
Temperature  
Mean Temperature 67 °F 70 °F  
Max Temperature 91 °F 89 °F 108 °F (1957)
Min Temperature 43 °F 51 °F 39 °F (1911)
Degree Days  
Heating Degree Days 0 0  
Month to date heating degree days 0 0  
Since 1 July heating degree days 1 3  
Cooling Degree Days 2 5  
Month to date cooling degree days 35 41  
Year to date cooling degree days 803 724  
Growing Degree Days 16 (Base 50)    
Moisture  
Dew Point 41 °F    
Average Humidity 47    
Maximum Humidity 83    
Minimum Humidity 11    
Precipitation  
Precipitation 0.00 in 0.02 in 0.66 in (1985)
Month to date precipitation 0.00 0.06  
Year to date precipitation 18.92 23.58  
Since 1 July precipitation T 0.20  
Snow  
Snow 0.00 in - - ()
Month to date snowfall 0.0  
Since 1 July snowfall 0.0  
Since 1 September snowfall 0.0  
Snow Depth 0.00 in    
Sea Level Pressure  
Sea Level Pressure 30.01 in    
Wind  
Wind Speed 3 mph (SSE)    
Max Wind Speed 15 mph    
Max Gust Speed 21 mph    
Visibility 10 miles    
Events      
T = Trace of Precipitation, MM = Missing Value Source: NWS Daily Summary

Daily Weather History Graph

Daily Weather History Graph

Search for Another Location

Airport or City:

Trip Planner

Search our weather history database for the weather conditions in past years. The results will help you decide how hot, cold, wet, or windy it might be!

Date:

Astronomy

Sep. 07, 2012 Rise Set
Actual Time 6:47 AM PDT 7:33 PM PDT
Civil Twilight 6:20 AM PDT 8:00 PM PDT
Nautical Twilight 5:48 AM PDT 8:32 PM PDT
Astronomical Twilight 5:15 AM PDT 9:05 PM PDT
Moon 11:36 PM PDT (9/7) 1:41 PM PDT (9/7)
Length of Visible Light 13h 39m
Length of Day
12h 45m
Waning Gibbous, 57% of the Moon is Illuminated
Sep 7
Waning Gibbous
Sep 8
Last Quarter
Sep 15
New
Sep 22
First Quarter
Sep 29
Full

Hourly Weather History & Observations

Time (PDT) Temp. Dew Point Humidity Pressure Visibility Wind Dir Wind Speed Gust Speed Precip Events Conditions
12:56 AM 55.0 °F 43.0 °F 64% 30.00 in 10.0 mi South 4.6 mph - N/A   Clear
1:56 AM 52.0 °F 44.1 °F 74% 30.00 in 10.0 mi South 3.5 mph - N/A   Clear
2:56 AM 51.1 °F 44.1 °F 77% 30.01 in 10.0 mi SW 3.5 mph - N/A   Clear
3:56 AM 48.0 °F 43.0 °F 83% 30.01 in 10.0 mi Calm Calm - N/A   Clear
4:56 AM 45.0 °F 39.9 °F 82% 30.02 in 10.0 mi Calm Calm - N/A   Clear
5:56 AM 44.1 °F 39.0 °F 82% 30.04 in 10.0 mi Calm Calm - N/A   Clear
6:56 AM 43.0 °F 37.9 °F 82% 30.05 in 10.0 mi Calm Calm - N/A   Clear
7:56 AM 46.0 °F 39.0 °F 76% 30.06 in 10.0 mi Calm Calm - N/A   Clear
8:56 AM 51.1 °F 42.1 °F 71% 30.07 in 10.0 mi Calm Calm - N/A   Clear
9:56 AM 57.9 °F 44.1 °F 60% 30.08 in 10.0 mi Calm Calm - N/A   Clear
10:56 AM 64.9 °F 44.1 °F 47% 30.06 in 10.0 mi East 3.5 mph - N/A   Clear
11:56 AM 72.0 °F 41.0 °F 33% 30.04 in 10.0 mi Calm Calm - N/A   Clear
12:56 PM 82.0 °F 39.9 °F 22% 30.01 in 10.0 mi ESE 6.9 mph - N/A   Clear
1:56 PM 87.1 °F 32.0 °F 14% 29.99 in 10.0 mi SE 11.5 mph - N/A   Clear
2:56 PM 90.0 °F 28.9 °F 11% 29.98 in 10.0 mi SE 11.5 mph - N/A   Clear
3:56 PM 90.0 °F 30.9 °F 12% 29.97 in 10.0 mi SSE 10.4 mph - N/A   Clear
4:56 PM 90.0 °F 32.0 °F 13% 29.96 in 10.0 mi SE 9.2 mph - N/A   Clear
5:56 PM 89.1 °F 33.1 °F 14% 29.95 in 10.0 mi SSE 6.9 mph - N/A   Clear
6:56 PM 82.9 °F 48.9 °F 31% 29.96 in 10.0 mi Calm Calm - N/A   Clear
7:56 PM 75.9 °F 48.9 °F 38% 29.97 in 10.0 mi NNW 4.6 mph - N/A   Clear
8:56 PM 72.0 °F 48.0 °F 43% 30.00 in 10.0 mi North 3.5 mph - N/A   Clear
9:56 PM 66.9 °F 48.9 °F 52% 30.01 in 10.0 mi Calm Calm - N/A   Clear
10:56 PM 64.4 °F 48.2 °F 56% 30.03 in 10.0 mi Calm Calm - N/A   Clear
11:56 PM 62.1 °F 48.0 °F 60% 30.02 in 10.0 mi Calm Calm - N/A   Clear